Location: Huesca
(42.1318°N, 0.4078°W)
Time: 23:24:23
(UTC+02:00)

CUTE 1.7 + AOD 2 - Pass Details

Date: 30 April 2024
Orbit: 569 x 586 km, 97.8° (Epoch: 26 May)

Event Time Altitude Azimuth Distance (km) Brightness Sun altitude
Rises 04:20:00 0° 36° (NE) 2,780 ? -24.4°
Reaches altitude 10° 04:23:36 10° 70° (ENE) 1,874 ? -24.0°
Maximum altitude 04:25:01 12° 90° (E) 1,771 ? -23.8°
Drops below altitude 10° 04:26:26 10° 111° (ESE) 1,869 ? -23.6°
Enters shadow 04:28:29 - 134° (SE) 2,305 ? -23.4°
